Time,TemperatureF,DewpointF,PressureIn,WindDirection,WindDirectionDegrees,WindSpeedMPH,WindSpeedGustMPH,Humidity,HourlyPrecipIn,Conditions,Clouds,dailyrainin,SolarRadiationWatts/m^2,SoftwareType,DateUTC
2013-02-04 00:11:00,13.7,10.0,29.78,NW,326,0.0,0.0,85,0.00,,,0.00,0,weatherlink.com 1.10,2013-02-04 05:11:00,
2013-02-04 00:27:00,13.5,11.0,29.78,NW,326,0.0,0.0,88,0.00,,,0.00,0,weatherlink.com 1.10,2013-02-04 05:27:00,
2013-02-04 00:41:00,13.7,11.0,29.78,NW,326,0.0,0.0,89,0.00,,,0.00,0,weatherlink.com 1.10,2013-02-04 05:41:00,
2013-02-04 00:57:00,14.0,12.0,29.78,NW,326,0.0,0.0,90,0.00,,,0.00,0,weatherlink.com 1.10,2013-02-04 05:57:00,
2013-02-04 01:13:00,14.3,12.0,29.78,NW,326,0.0,0.0,91,0.00,,,0.00,0,weatherlink.com 1.10,2013-02-04 06:13:00,
2013-02-04 01:27:00,14.4,12.0,29.78,NW,326,0.0,0.0,90,0.00,,,0.00,0,weatherlink.com 1.10,2013-02-04 06:27:00,
2013-02-04 01:43:00,14.6,12.0,29.78,NW,326,0.0,0.0,90,0.00,,,0.00,0,weatherlink.com 1.10,2013-02-04 06:43:00,
2013-02-04 02:00:00,14.9,13.0,29.78,NW,324,2.0,2.0,91,0.00,,,0.00,0,weatherlink.com 1.10,2013-02-04 07:00:00,
2013-02-04 02:16:00,15.5,13.0,29.78,WNW,303,0.0,3.0,91,0.00,,,0.00,0,weatherlink.com 1.10,2013-02-04 07:16:00,
2013-02-04 02:32:00,16.2,14.0,29.78,NNW,345,1.0,3.0,91,0.00,,,0.00,0,weatherlink.com 1.10,2013-02-04 07:32:00,
2013-02-04 02:48:00,17.3,15.0,29.78,NW,321,1.0,5.0,90,0.00,,,0.00,0,weatherlink.com 1.10,2013-02-04 07:48:00,
2013-02-04 03:06:00,18.6,15.0,29.78,NW,311,3.0,8.0,87,0.00,,,0.00,0,weatherlink.com 1.10,2013-02-04 08:06:00,
2013-02-04 03:21:00,19.1,15.0,29.79,NNW,328,4.0,9.0,85,0.00,,,0.00,0,weatherlink.com 1.10,2013-02-04 08:21:00,
2013-02-04 03:37:00,19.1,15.0,29.79,NW,322,2.0,4.0,85,0.00,,,0.00,0,weatherlink.com 1.10,2013-02-04 08:37:00,
2013-02-04 03:52:00,18.7,15.0,29.80,NNW,333,4.0,7.0,86,0.00,,,0.00,0,weatherlink.com 1.10,2013-02-04 08:52:00,
2013-02-04 04:08:00,18.2,15.0,29.80,NNW,335,2.0,6.0,87,0.00,,,0.00,0,weatherlink.com 1.10,2013-02-04 09:08:00,
2013-02-04 04:41:00,17.6,15.0,29.81,WNW,289,2.0,7.0,89,0.00,,,0.00,0,weatherlink.com 1.10,2013-02-04 09:41:00,
2013-02-04 04:57:00,17.5,15.0,29.81,NNW,330,4.0,6.0,89,0.00,,,0.00,0,weatherlink.com 1.10,2013-02-04 09:57:00,
2013-02-04 05:13:00,17.2,15.0,29.82,WNW,295,4.0,6.0,89,0.00,,,0.00,0,weatherlink.com 1.10,2013-02-04 10:13:00,
2013-02-04 05:28:00,17.3,14.0,29.82,NNW,328,3.0,9.0,88,0.00,,,0.00,0,weatherlink.com 1.10,2013-02-04 10:28:00,
2013-02-04 05:44:00,17.3,14.0,29.83,WNW,299,4.0,7.0,86,0.00,,,0.00,0,weatherlink.com 1.10,2013-02-04 10:44:00,
2013-02-04 06:00:00,17.2,14.0,29.84,NNW,332,2.0,6.0,87,0.00,,,0.00,0,weatherlink.com 1.10,2013-02-04 11:00:00,
2013-02-04 06:16:00,17.3,14.0,29.84,NW,308,1.0,9.0,87,0.00,,,0.00,0,weatherlink.com 1.10,2013-02-04 11:16:00,
2013-02-04 06:32:00,17.1,14.0,29.85,NW,309,2.0,9.0,87,0.00,,,0.00,0,weatherlink.com 1.10,2013-02-04 11:32:00,
2013-02-04 06:49:00,17.0,14.0,29.85,NW,306,9.0,10.0,86,0.00,,,0.00,0,weatherlink.com 1.10,2013-02-04 11:49:00,
2013-02-04 07:05:00,17.3,13.0,29.86,NW,311,3.0,9.0,84,0.00,,,0.00,7,weatherlink.com 1.10,2013-02-04 12:05:00,
2013-02-04 07:20:00,17.2,13.0,29.86,NW,317,4.0,6.0,84,0.00,,,0.00,14,weatherlink.com 1.10,2013-02-04 12:20:00,
2013-02-04 07:36:00,17.5,13.0,29.86,WNW,298,2.0,7.0,82,0.00,,,0.00,26,weatherlink.com 1.10,2013-02-04 12:36:00,
2013-02-04 07:53:00,18.0,13.0,29.87,NNW,328,5.0,9.0,80,0.00,,,0.00,44,weatherlink.com 1.10,2013-02-04 12:53:00,
2013-02-04 08:09:00,18.4,13.0,29.87,WNW,285,3.0,11.0,78,0.00,,,0.00,90,weatherlink.com 1.10,2013-02-04 13:09:00,
2013-02-04 08:25:00,18.9,13.0,29.87,West,276,4.0,14.0,76,0.00,,,0.00,146,weatherlink.com 1.10,2013-02-04 13:25:00,
2013-02-04 08:41:00,19.4,12.0,29.87,NW,323,9.0,12.0,72,0.00,,,0.00,204,weatherlink.com 1.10,2013-02-04 13:41:00,
2013-02-04 08:59:00,19.9,12.0,29.88,WNW,299,6.0,10.0,71,0.00,,,0.00,62,weatherlink.com 1.10,2013-02-04 13:59:00,
2013-02-04 09:13:00,20.2,12.0,29.88,NNW,333,7.0,11.0,69,0.00,,,0.00,128,weatherlink.com 1.10,2013-02-04 14:13:00,
2013-02-04 09:29:00,20.4,11.0,29.88,West,277,7.0,15.0,66,0.00,,,0.00,236,weatherlink.com 1.10,2013-02-04 14:29:00,
2013-02-04 09:45:00,21.6,12.0,29.88,NW,317,6.0,15.0,66,0.00,,,0.00,232,weatherlink.com 1.10,2013-02-04 14:45:00,
2013-02-04 10:02:00,21.3,10.0,29.88,NNW,346,4.0,16.0,63,0.00,,,0.00,135,weatherlink.com 1.10,2013-02-04 15:02:00,
2013-02-04 10:18:00,21.8,11.0,29.88,WNW,298,9.0,14.0,64,0.00,,,0.00,230,weatherlink.com 1.10,2013-02-04 15:18:00,
2013-02-04 10:34:00,22.7,11.0,29.89,NW,304,7.0,18.0,61,0.00,,,0.00,169,weatherlink.com 1.10,2013-02-04 15:34:00,
2013-02-04 10:50:00,21.9,11.0,29.89,WNW,284,7.0,20.0,62,0.00,,,0.00,248,weatherlink.com 1.10,2013-02-04 15:50:00,
2013-02-04 11:06:00,22.5,11.0,29.88,NW,308,15.0,18.0,61,0.00,,,0.00,225,weatherlink.com 1.10,2013-02-04 16:06:00,
2013-02-04 11:22:00,22.2,10.0,29.88,WNW,299,8.0,18.0,59,0.00,,,0.00,195,weatherlink.com 1.10,2013-02-04 16:22:00,
2013-02-04 11:38:00,22.8,11.0,29.88,NNW,328,6.0,19.0,60,0.00,,,0.00,197,weatherlink.com 1.10,2013-02-04 16:38:00,
2013-02-04 11:54:00,23.0,10.0,29.87,West,261,10.0,17.0,57,0.00,,,0.00,262,weatherlink.com 1.10,2013-02-04 16:54:00,
2013-02-04 12:10:00,24.2,11.0,29.86,NNW,333,8.0,14.0,57,0.00,,,0.00,663,weatherlink.com 1.10,2013-02-04 17:10:00,
2013-02-04 12:27:00,23.8,8.0,29.86,WNW,285,9.0,18.0,52,0.00,,,0.00,204,weatherlink.com 1.10,2013-02-04 17:27:00,
2013-02-04 12:43:00,23.0,9.0,29.86,WNW,284,8.0,17.0,56,0.00,,,0.00,160,weatherlink.com 1.10,2013-02-04 17:43:00,
2013-02-04 12:58:00,23.9,10.0,29.86,WNW,284,11.0,17.0,56,0.00,,,0.00,241,weatherlink.com 1.10,2013-02-04 17:58:00,
2013-02-04 13:14:00,24.3,10.0,29.85,WSW,256,4.0,19.0,55,0.00,,,0.00,585,weatherlink.com 1.10,2013-02-04 18:14:00,
2013-02-04 13:31:00,24.3,10.0,29.85,WNW,301,5.0,14.0,55,0.00,,,0.00,158,weatherlink.com 1.10,2013-02-04 18:31:00,
2013-02-04 13:47:00,24.0,10.0,29.86,WNW,291,5.0,18.0,55,0.00,,,0.00,197,weatherlink.com 1.10,2013-02-04 18:47:00,
2013-02-04 14:03:00,24.5,9.0,29.86,WNW,303,12.0,20.0,53,0.00,,,0.00,220,weatherlink.com 1.10,2013-02-04 19:03:00,
2013-02-04 14:19:00,24.5,8.0,29.86,WNW,291,9.0,17.0,50,0.00,,,0.00,181,weatherlink.com 1.10,2013-02-04 19:19:00,
2013-02-04 14:34:00,24.6,9.0,29.86,WNW,288,13.0,15.0,52,0.00,,,0.00,169,weatherlink.com 1.10,2013-02-04 19:34:00,
2013-02-04 14:50:00,24.8,9.0,29.86,NNW,341,3.0,16.0,52,0.00,,,0.00,153,weatherlink.com 1.10,2013-02-04 19:50:00,
2013-02-04 15:06:00,25.2,10.0,29.86,NW,319,4.0,12.0,52,0.00,,,0.00,137,weatherlink.com 1.10,2013-02-04 20:06:00,
2013-02-04 15:23:00,25.2,9.0,29.86,NW,305,6.0,13.0,51,0.00,,,0.00,120,weatherlink.com 1.10,2013-02-04 20:23:00,
2013-02-04 15:39:00,25.0,9.0,29.86,NW,306,9.0,16.0,51,0.00,,,0.00,58,weatherlink.com 1.10,2013-02-04 20:39:00,
2013-02-04 15:55:00,24.4,9.0,29.86,WNW,291,10.0,15.0,51,0.00,,,0.00,47,weatherlink.com 1.10,2013-02-04 20:55:00,
2013-02-04 16:12:00,24.1,8.0,29.86,West,279,13.0,14.0,51,0.00,,,0.00,30,weatherlink.com 1.10,2013-02-04 21:12:00,
2013-02-04 16:27:00,23.8,8.0,29.86,NW,324,6.0,13.0,51,0.00,,,0.00,30,weatherlink.com 1.10,2013-02-04 21:27:00,
2013-02-04 16:42:00,23.6,8.0,29.86,West,270,3.0,10.0,51,0.00,,,0.00,18,weatherlink.com 1.10,2013-02-04 21:42:00,
2013-02-04 16:59:00,23.4,7.0,29.87,NW,306,14.0,16.0,49,0.00,,,0.00,11,weatherlink.com 1.10,2013-02-04 21:59:00,
2013-02-04 17:15:00,23.0,6.0,29.88,NW,306,9.0,19.0,49,0.00,,,0.00,0,weatherlink.com 1.10,2013-02-04 22:15:00,
2013-02-04 17:31:00,22.6,7.0,29.89,NW,305,6.0,13.0,51,0.00,,,0.00,0,weatherlink.com 1.10,2013-02-04 22:31:00,
2013-02-04 17:47:00,22.1,7.0,29.89,NW,322,7.0,12.0,52,0.00,,,0.00,0,weatherlink.com 1.10,2013-02-04 22:47:00,
2013-02-04 18:03:00,21.7,6.0,29.90,NW,307,2.0,13.0,52,0.00,,,0.00,0,weatherlink.com 1.10,2013-02-04 23:03:00,
2013-02-04 18:20:00,21.3,6.0,29.91,NW,305,6.0,8.0,52,0.00,,,0.00,0,weatherlink.com 1.10,2013-02-04 23:20:00,
2013-02-04 18:35:00,20.9,6.0,29.92,NNW,329,2.0,12.0,53,0.00,,,0.00,0,weatherlink.com 1.10,2013-02-04 23:35:00,
2013-02-04 18:51:00,20.6,6.0,29.92,West,265,5.0,12.0,54,0.00,,,0.00,0,weatherlink.com 1.10,2013-02-04 23:51:00,
2013-02-04 19:07:00,20.3,6.0,29.92,WNW,295,2.0,6.0,55,0.00,,,0.00,0,weatherlink.com 1.10,2013-02-05 00:07:00,
2013-02-04 19:24:00,20.0,6.0,29.92,NNW,331,5.0,11.0,55,0.00,,,0.00,0,weatherlink.com 1.10,2013-02-05 00:24:00,
2013-02-04 19:40:00,20.4,6.0,29.92,WNW,302,2.0,14.0,54,0.00,,,0.00,0,weatherlink.com 1.10,2013-02-05 00:40:00,
2013-02-04 19:56:00,20.3,6.0,29.93,WNW,294,7.0,12.0,54,0.00,,,0.00,0,weatherlink.com 1.10,2013-02-05 00:56:00,
2013-02-04 20:11:00,20.1,6.0,29.94,WNW,294,7.0,11.0,54,0.00,,,0.00,0,weatherlink.com 1.10,2013-02-05 01:11:00,
2013-02-04 20:27:00,19.7,6.0,29.93,West,269,1.0,10.0,55,0.00,,,0.00,0,weatherlink.com 1.10,2013-02-05 01:27:00,
2013-02-04 20:43:00,19.6,6.0,29.94,West,269,3.0,7.0,56,0.00,,,0.00,0,weatherlink.com 1.10,2013-02-05 01:43:00,
2013-02-04 20:59:00,19.6,7.0,29.94,West,277,1.0,6.0,57,0.00,,,0.00,0,weatherlink.com 1.10,2013-02-05 01:59:00,
2013-02-04 21:15:00,19.7,7.0,29.94,NW,308,1.0,8.0,57,0.00,,,0.00,0,weatherlink.com 1.10,2013-02-05 02:15:00,
2013-02-04 21:32:00,19.9,7.0,29.94,NW,318,1.0,5.0,57,0.00,,,0.00,0,weatherlink.com 1.10,2013-02-05 02:32:00,
2013-02-04 21:48:00,20.0,7.0,29.95,NW,306,0.0,6.0,57,0.00,,,0.00,0,weatherlink.com 1.10,2013-02-05 02:48:00,
2013-02-04 22:03:00,20.0,7.0,29.94,WNW,296,1.0,2.0,58,0.00,,,0.00,0,weatherlink.com 1.10,2013-02-05 03:03:00,
2013-02-04 22:20:00,20.0,8.0,29.94,NW,307,1.0,5.0,59,0.00,,,0.00,0,weatherlink.com 1.10,2013-02-05 03:20:00,
2013-02-04 22:35:00,20.0,8.0,29.95,WNW,300,1.0,3.0,60,0.00,,,0.00,0,weatherlink.com 1.10,2013-02-05 03:35:00,
2013-02-04 22:52:00,19.9,8.0,29.95,WNW,298,1.0,2.0,61,0.00,,,0.00,0,weatherlink.com 1.10,2013-02-05 03:52:00,
2013-02-04 23:08:00,19.8,9.0,29.95,West,263,1.0,4.0,63,0.00,,,0.00,0,weatherlink.com 1.10,2013-02-05 04:08:00,
2013-02-04 23:24:00,19.8,9.0,29.95,West,263,3.0,6.0,64,0.00,,,0.00,0,weatherlink.com 1.10,2013-02-05 04:24:00,
2013-02-04 23:40:00,19.9,9.0,29.95,West,263,0.0,4.0,64,0.00,,,0.00,0,weatherlink.com 1.10,2013-02-05 04:40:00,
2013-02-04 23:55:00,20.0,10.0,29.95,West,272,0.0,4.0,64,0.00,,,0.00,0,weatherlink.com 1.10,2013-02-05 04:55:00,